RH
22 21 20 19 17 16 15 15 14 13 11 9 8 7 6 5 5 5 7 8 10 12 14 17 18 20 21 23 26 29 29 27 27 39 61 78 85 88 91 95 93 90
23 22 21 19 17 16 15 15 13 11 10 8 7 6 5 5 6 7 9 11 13 15 17 19 21 24 26 27 29 32 35 34 31 37 55 73 82 84 85 88 89 91
24 23 21 19 17 16 15 14 12 10 9 7 7 6 6 6 8 10 12 15 16 18 19 21 22 25 29 31 33 35 38 39 39 45 59 74 84 88 86 83 82 84
25 23 21 19 17 16 14 13 11 9 8 7 7 6 7 9 11 13 16 18 19 20 21 22 22 24 27 32 37 39 42 44 46 56 71 84 93 95 92 88 84 80
25 23 21 19 16 15 14 12 10 8 8 7 7 7 9 12 15 18 20 21 22 22 23 23 23 23 24 27 34 41 46 50 51 59 74 90 101 102 97 93 89 85
25 23 20 18 16 14 13 11 9 8 8 7 8 9 12 16 19 22 24 24 25 25 25 25 25 25 25 25 28 35 44 53 57 60 68 81 95 103 101 95 92 91
25 22 19 16 14 13 12 10 9 8 8 8 9 12 15 19 22 24 26 27 27 27 27 27 26 26 28 29 31 33 38 48 59 64 65 68 78 90 96 97 97 95
24 20 17 15 13 12 10 9 9 9 9 10 12 15 19 22 25 27 29 29 29 29 28 28 27 27 27 31 36 39 41 48 59 66 66 66 71 78 85 90 94 94
23 19 15 13 11 11 10 9 10 10 10 12 14 18 21 25 28 29 31 32 31 30 28 27 27 26 27 30 35 40 44 51 60 68 71 71 73 76 80 84 88 91
21 17 14 12 10 10 10 10 10 10 11 13 16 20 23 26 29 30 31 31 31 30 28 27 26 26 27 31 34 39 43 48 56 68 75 77 78 78 79 82 85 87
20 16 13 11 10 10 10 10 11 12 13 16 19 23 26 28 30 31 32 31 31 30 28 27 26 26 28 31 35 40 45 49 54 62 71 78 81 82 83 84 84 85
19 15 12 11 10 10 11 11 12 14 17 20 23 26 28 30 30 30 31 31 31 30 29 27 26 27 29 33 36 41 47 51 52 55 61 70 78 82 84 85 85 85
17 13 11 10 11 11 12 13 15 18 20 23 26 28 29 29 28 29 29 29 30 30 29 28 27 27 31 36 40 44 46 48 50 53 56 60 67 74 79 83 85 86
15 12 10 10 11 12 14 16 18 21 23 25 27 29 29 28 27 28 29 29 30 30 30 29 27 29 34 40 45 47 46 46 50 53 54 54 56 61 69 76 82 87
14 11 10 10 12 13 15 18 21 24 26 27 29 29 29 29 29 29 31 31 32 32 31 29 28 31 39 46 49 48 47 48 50 52 54 54 54 54 58 65 73 81
13 11 10 11 12 15 17 20 23 26 28 30 30 30 30 31 30 31 32 33 33 33 32 30 29 33 43 51 52 50 49 50 51 52 54 55 56 55 55 57 62 69
12 11 11 11 13 16 20 23 26 29 31 32 32 32 32 32 31 31 31 32 32 33 32 31 30 34 45 52 52 51 53 53 52 53 55 56 57 58 58 58 59 62
12 11 11 12 15 18 22 26 29 32 33 33 33 34 34 33 32 31 30 29 29 28 29 29 30 39 49 53 52 53 56 57 55 54 55 55 56 58 61 64 65 66
12 11 12 13 16 20 24 28 32 34 35 35 35 36 35 34 33 31 29 28 26 25 25 26 31 45 54 54 53 55 59 59 56 55 54 54 55 57 61 66 71 73
12 12 12 14 17 22 27 31 35 37 37 38 37 38 37 36 34 32 29 27 25 24 23 22 33 51 58 55 55 58 60 60 57 55 55 55 56 58 61 66 73 78
13 12 13 15 18 24 30 34 38 39 39 40 40 40 40 38 36 32 29 27 26 26 23 22 36 56 61 57 58 61 61 60 57 55 55 56 58 59 61 64 71 78
13 13 14 15 20 27 34 39 42 42 42 41 42 43 43 41 38 33 30 28 28 28 24 22 40 62 63 59 62 64 62 60 57 56 56 58 59 60 62 65 69 72
13 14 15 16 22 30 37 43 45 44 43 43 44 46 45 43 39 34 32 30 28 29 24 23 44 67 67 63 66 66 64 62 58 57 59 61 61 63 65 66 67 68
14 15 15 18 24 33 40 46 47 46 44 45 47 48 47 45 41 36 34 31 28 29 25 26 49 71 70 67 70 70 67 65 60 60 63 64 63 64 66 66 67 69
15 16 16 19 26 34 43 49 50 47 46 46 49 50 49 47 42 38 36 32 27 26 25 31 55 74 73 71 73 74 72 68 64 66 67 66 67 67 66 67 68 70
16 16 18 21 27 36 46 53 52 49 47 47 49 50 50 49 44 39 38 32 25 22 24 39 64 76 76 75 76 77 77 71 69 72 71 68 70 69 68 68 68 72
Wind_Speed
48 48 49 49 49 49 49 49 50 50 50 50 50 50 48 48 47 46 44 43 42 40 37 36 36 37 38 39 40 42 42 41 39 38 39 40 41 41 40 41 40 39
48 49 49 48 48 48 49 49 49 49 49 49 49 48 48 47 46 44 43 41 40 38 36 35 35 35 37 38 39 40 41 41 40 39 39 40 42 42 41 41 41 40
48 49 49 48 48 48 48 48 48 48 47 47 47 47 46 46 44 43 41 40 39 37 36 35 34 34 35 37 38 39 40 41 41 40 39 40 41 42 42 41 41 41
48 49 49 49 48 48 48 48 47 47 46 46 46 45 44 44 43 42 40 39 38 37 36 35 35 35 35 36 37 39 40 41 41 40 40 40 40 41 43 43 42 42
48 49 49 49 48 48 47 47 46 46 45 45 44 43 42 42 41 40 39 39 38 37 37 37 37 37 36 36 37 38 39 40 41 41 41 42 41 42 43 45 44 44
47 48 49 49 48 47 47 47 46 45 44 43 43 41 40 40 39 39 39 39 38 38 38 38 38 39 39 39 39 38 38 39 41 42 43 44 43 43 45 47 47 46
47 48 48 48 48 47 46 46 45 44 44 43 42 41 40 39 38 38 39 39 39 39 39 40 40 40 40 41 41 41 41 40 40 41 44 45 45 45 47 48 48 49
47 47 47 47 46 46 45 45 44 43 42 42 41 40 40 39 39 38 39 39 40 40 40 41 41 41 41 41 42 43 44 43 42 42 44 45 44 45 47 48 49 50
47 47 47 46 45 45 44 43 43 42 41 41 40 40 39 39 39 39 39 40 40 40 40 41 41 41 41 42 43 43 44 44 43 44 45 45 45 45 46 47 48 48
47 47 46 45 44 44 43 43 42 41 41 40 40 40 39 39 39 39 39 40 40 40 40 40 41 41 42 42 43 44 44 43 43 43 44 45 45 46 46 46 47 47
46 46 46 45 44 43 43 42 41 41 40 40 40 40 39 39 39 39 40 40 40 40 40 40 41 41 42 42 43 43 42 41 41 41 42 44 45 45 45 46 46 46
47 46 45 44 44 43 43 42 41 40 40 39 39 39 40 40 40 40 41 41 40 40 40 40 41 41 42 42 42 40 39 39 40 41 41 42 43 43 44 44 45 45
46 45 45 44 43 42 42 41 40 40 40 39 39 40 40 41 42 42 42 42 42 41 41 40 41 41 42 42 41 39 38 38 38 39 40 41 42 42 43 43 43 44
46 45 43 42 42 41 40 40 39 40 40 39 40 40 42 43 43 43 43 43 42 42 41 41 41 41 41 41 39 38 38 38 37 38 39 41 41 42 42 42 42 42
45 44 43 41 40 40 40 39 39 39 39 39 40 41 42 43 43 43 43 43 42 42 41 41 40 40 40 39 38 37 38 38 38 37 38 39 40 40 40 40 41 41
45 44 43 41 40 40 39 39 39 39 39 39 41 42 42 43 43 43 43 42 42 41 41 41 40 40 39 37 37 37 37 38 38 38 38 38 38 39 39 39 38 38
45 44 43 41 40 39 39 39 39 39 39 40 41 42 42 43 43 42 42 42 42 42 41 40 39 39 38 36 35 35 36 37 38 38 38 37 37 37 37 37 36 36
44 43 42 41 40 39 39 39 38 39 39 40 41 41 42 43 43 43 43 43 43 42 41 39 38 38 37 35 34 34 34 35 37 38 37 37 36 35 35 35 35 34
43 42 41 40 39 39 38 38 38 38 39 39 40 41 42 42 43 43 43 43 43 42 40 38 37 37 36 34 33 33 33 34 36 36 36 35 34 34 33 33 33 33
42 42 41 40 39 38 38 38 38 38 38 39 40 40 41 42 42 42 43 43 42 41 39 36 35 35 34 33 32 32 31 33 34 34 33 33 32 31 31 31 31 31
42 41 41 40 39 38 38 37 38 38 38 39 40 40 41 41 42 42 42 42 41 39 37 35 34 33 32 32 31 31 31 32 32 31 31 30 29 29 29 29 29 29
42 41 40 39 38 38 37 37 37 38 38 39 39 40 40 41 41 41 41 41 39 38 36 34 32 31 31 31 30 30 31 31 30 29 28 28 27 27 26 26 27 27
41 41 40 39 38 37 37 37 37 37 38 39 39 39 40 40 41 41 40 40 39 37 35 33 31 30 30 30 29 29 30 30 29 27 26 26 25 25 25 25 26 26
41 40 39 38 37 37 36 36 37 37 38 38 39 39 39 40 40 40 40 39 38 36 34 33 30 28 28 28 28 28 29 29 28 26 24 25 24 24 24 24 25 24
40 40 39 38 37 36 36 36 37 37 38 38 38 39 39 39 40 40 40 39 38 35 33 32 29 27 27 27 27 26 28 28 27 25 24 24 23 23 23 23 23 23
40 39 39 38 37 36 36 36 37 37 38 38 38 38 39 39 40 40 40 39 37 35 32 30 28 26 26 26 25 25 26 27 25 24 25 23 22 23 23 22 21 20
Wind_Direction
313 314 314 313 312 311 311 310 310 310 310 309 309 309 308 308 307 307 307 306 305 305 304 302 301 301 302 303 303 302 303 303 300 295 290 289 289 288 288 288 288 287
314 314 313 313 311 311 310 310 311 310 310 309 309 309 309 309 308 308 307 306 304 304 303 302 302 301 301 301 301 301 300 300 299 295 289 286 286 286 286 285 285 284
313 313 313 312 311 311 311 311 311 311 310 310 309 309 309 309 309 308 307 306 304 303 302 302 301 301 300 300 299 298 298 297 296 294 289 286 285 285 284 283 282 282
313 313 313 313 312 312 312 312 312 311 310 310 310 310 309 309 308 307 306 304 303 302 302 302 301 301 300 299 297 296 295 294 293 290 287 284 283 284 283 283 281 281
313 313 313 313 312 312 312 312 312 311 310 310 310 309 309 307 306 305 304 302 302 302 302 302 302 301 301 299 297 295 293 292 290 287 284 282 281 281 281 281 281 280
313 313 313 312 312 312 312 312 311 311 310 310 310 309 307 306 304 303 302 301 301 301 301 301 301 301 301 301 299 297 293 290 287 285 282 279 278 278 278 278 279 280
313 313 313 312 312 312 312 312 311 311 310 310 310 308 307 305 303 302 301 300 300 301 300 300 299 300 300 301 300 299 296 292 287 282 280 278 276 275 276 277 278 278
313 313 312 312 312 312 312 311 311 310 310 309 309 308 306 305 304 302 301 300 300 300 300 298 298 299 299 300 299 298 296 294 289 284 281 280 279 277 276 276 277 277
313 313 312 312 312 311 311 310 310 309 308 308 307 306 305 304 303 302 302 301 300 300 299 298 297 298 298 299 299 297 295 292 289 286 284 283 281 279 277 276 276 276
313 312 312 311 311 310 309 308 308 307 307 306 306 305 304 304 303 302 302 301 301 300 299 298 297 297 298 298 298 297 295 292 289 286 284 283 281 280 279 278 277 276
312 312 311 311 310 309 308 307 306 306 305 305 305 304 304 303 303 302 302 301 301 300 299 298 298 297 298 298 298 296 294 293 290 287 284 282 281 280 279 279 278 278
312 312 311 310 309 308 307 306 306 305 305 305 304 304 303 303 303 302 302 301 301 300 300 299 298 298 299 299 298 296 294 292 290 288 286 284 282 281 280 279 278 278
312 311 310 309 308 306 305 305 304 304 304 304 303 303 303 303 303 303 302 301 301 300 299 299 298 299 299 300 298 296 293 292 290 288 287 285 284 282 281 280 279 279
310 310 308 307 306 304 303 303 302 302 302 302 303 303 304 304 305 304 303 302 302 301 300 299 299 299 300 299 297 295 294 292 291 288 286 285 284 283 282 281 281 280
309 308 307 305 304 303 302 301 301 300 301 301 303 305 305 306 306 306 304 303 303 302 300 299 299 299 299 298 296 295 294 293 292 289 287 285 284 283 283 282 282 281
309 308 307 306 304 303 301 301 300 300 300 302 304 306 307 307 306 305 304 303 302 301 300 300 299 299 298 297 295 294 294 294 293 291 288 286 285 284 283 282 282 281
308 308 307 306 304 302 301 300 299 299 301 303 305 307 307 307 306 305 303 302 301 300 300 300 299 298 297 296 294 294 294 294 294 292 290 289 287 285 284 283 283 282
308 307 306 305 303 301 300 298 298 299 301 303 305 307 307 307 306 305 304 302 301 300 299 299 299 298 297 295 293 293 293 294 294 293 292 290 289 288 287 286 285 283
307 306 304 303 302 300 298 297 297 298 300 303 305 306 307 307 307 306 305 303 302 300 298 297 297 297 296 294 292 292 293 293 292 291 292 292 292 292 291 289 287 285
306 305 304 302 301 299 298 297 297 297 299 302 304 306 307 308 308 307 306 304 303 301 299 297 296 297 295 293 292 293 293 291 291 291 292 293 294 293 291 290 288 286
306 304 303 302 300 299 297 296 296 297 299 301 304 307 308 309 309 308 308 306 304 303 300 297 296 296 294 292 292 293 292 291 291 292 292 293 293 293 291 290 288 284
305 304 303 302 300 298 296 296 295 296 299 301 304 307 309 310 310 309 309 307 305 304 300 297 296 295 292 291 292 292 291 291 291 292 293 294 293 292 291 290 287 284
305 304 303 301 299 297 295 295 295 296 298 300 303 306 309 310 311 311 310 308 306 304 300 297 296 294 291 291 292 292 291 291 292 294 295 294 293 292 290 288 288 288
304 304 303 301 299 297 295 295 294 295 297 299 303 306 309 311 311 311 311 308 305 303 299 296 295 293 290 290 291 291 291 291 293 295 295 294 293 292 290 289 290 291
304 303 303 301 299 297 296 295 295 295 297 300 303 306 309 311 312 312 311 309 306 301 297 295 294 291 288 288 289 290 290 292 295 296 294 293 294 292 291 291 292 292
304 304 302 301 299 298 296 295 295 296 297 300 303 306 309 312 313 312 312 310 306 301 296 294 292 288 287 287 288 288 289 291 295 295 294 294 294 292 292 292 293 295